Fairbanks Eiels, AK

2:22 AM AKDT on March 25, 2017 (GMT -0800)
Eielson Air Force Base

Weather History for PAEI - November, 2013

Change the Weather History Date:

Friday, November 22, 2013

  Actual Average Record
Temperature  
Mean Temperature 8 °F -  
Max Temperature 15 °F 12 °F 46 °F (2007)
Min Temperature 0 °F -1 °F -36 °F (1963)
Degree Days  
Heating Degree Days 58    
Moisture  
Dew Point 3 °F    
Average Humidity 82    
Maximum Humidity 86    
Minimum Humidity 73    
Precipitation  
Precipitation 0.00 in - - ()
Sea Level Pressure  
Sea Level Pressure 29.35 in    
Wind  
Wind Speed 4 mph (North)    
Max Wind Speed 10 mph    
Max Gust Speed -    
Visibility 10 miles    
Events Snow    
Averages and records for this station are not official NWS values.
T = Trace of Precipitation, MM = Missing Value Source: NWS Daily Summary

Daily Weather History Graph

Daily Weather History Graph

Search for Another Location

Airport or City:

Trip Planner

Search our weather history database for the weather conditions in past years. The results will help you decide how hot, cold, wet, or windy it might be!

Date:

Astronomy

Nov. 22, 2013 Rise Set
Actual Time 9:47 AM AKST 3:21 PM AKST
Civil Twilight 8:39 AM AKST 4:28 PM AKST
Nautical Twilight 7:35 AM AKST 5:33 PM AKST
Astronomical Twilight 6:36 AM AKST 6:31 PM AKST
Moon 8:43 PM AKST (11/22) 1:00 PM AKST (11/22)
Length of Visible Light 7h 48m
Length of Day
5h 34m
Waning Gibbous, 77% of the Moon is Illuminated
Nov 22
Waning Gibbous
Nov 25
Last Quarter
Dec 2
New
Dec 9
First Quarter
Dec 17
Full

Hourly Weather History & Observations

Time (AKST) Temp. Windchill Dew Point Humidity Pressure Visibility Wind Dir Wind Speed Gust Speed Precip Events Conditions
12:58 AM 1.2 °F - -3.1 °F 82% 29.54 in 10.0 mi Calm Calm - N/A   Overcast
1:58 AM 2.8 °F - -1.1 °F 84% 29.51 in 10.0 mi Calm Calm - N/A   Mostly Cloudy
2:58 AM 4.3 °F -4.9 °F 0.3 °F 84% 29.49 in 10.0 mi East 4.6 mph - N/A   Mostly Cloudy
3:58 AM 8.4 °F -1.6 °F 5.0 °F 86% 29.44 in 10.0 mi Variable 5.8 mph - N/A   Partly Cloudy
4:58 AM 10.4 °F 0.8 °F 5.4 °F 80% 29.40 in 10.0 mi NNE 5.8 mph - 0.00 in   Overcast
5:58 AM 8.8 °F - 3.9 °F 81% 29.37 in 10.0 mi Variable 1.2 mph - 0.00 in   Overcast
6:58 AM 15.4 °F 3.0 °F 8.2 °F 73% 29.35 in 10.0 mi ESE 10.4 mph - N/A   Overcast
7:58 AM 8.8 °F -2.4 °F 3.6 °F 79% 29.36 in 10.0 mi NNE 6.9 mph - N/A   Overcast
8:58 AM 9.3 °F -1.7 °F 4.1 °F 79% 29.35 in 10.0 mi North 6.9 mph - N/A   Overcast
9:58 AM 9.7 °F - 4.6 °F 80% 29.34 in 10.0 mi North 1.2 mph - N/A   Mostly Cloudy
10:58 AM 10.0 °F -0.9 °F 5.5 °F 82% 29.32 in 10.0 mi NNW 6.9 mph - N/A   Overcast
11:58 AM 11.7 °F 2.3 °F 6.6 °F 80% 29.31 in 10.0 mi Variable 5.8 mph - N/A   Overcast
12:01 PM 12.2 °F 2.9 °F 6.8 °F 79% 29.26 in 10.0 mi North 5.8 mph - N/A   Overcast
12:58 PM 13.1 °F - 7.2 °F 77% 29.30 in 10.0 mi NNE 1.2 mph - N/A   Mostly Cloudy
1:58 PM 10.6 °F 1.0 °F 5.9 °F 81% 29.28 in 10.0 mi North 5.8 mph - N/A   Mostly Cloudy
2:58 PM 11.5 °F 2.1 °F 6.8 °F 81% 29.27 in 10.0 mi NNE 5.8 mph - N/A   Mostly Cloudy
3:58 PM 12.9 °F - 7.5 °F 79% 29.26 in 10.0 mi North 2.3 mph - N/A   Mostly Cloudy
4:58 PM 8.2 °F 1.6 °F 4.8 °F 86% 29.27 in 10.0 mi NNW 3.5 mph - N/A   Scattered Clouds
5:58 PM 3.9 °F - -0.0 °F 84% 29.28 in 10.0 mi Calm Calm - N/A   Partly Cloudy
6:43 PM 5.0 °F -5.6 °F 1.4 °F 85% 29.22 in 6.0 mi NNW 5.8 mph - N/A   Clear
6:55 PM 6.8 °F -2.0 °F 3.2 °F 85% 29.26 in 7.0 mi NNW 4.6 mph - N/A   Partly Cloudy
7:55 PM -0.4 °F - -4.0 °F 85% 29.26 in 10.0 mi Calm Calm - N/A   Partly Cloudy
8:58 PM 7.9 °F - 4.3 °F 85% 29.33 in 10.0 mi Calm Calm - N/A   Partly Cloudy
9:56 PM 5.0 °F -6.9 °F -0.4 °F 78% 29.33 in 10.0 mi Variable 6.9 mph - N/A   Partly Cloudy
9:58 PM 4.8 °F -7.1 °F 0.1 °F 81% 29.38 in 10.0 mi SW 6.9 mph - N/A   Scattered Clouds
10:58 PM 5.0 °F -4.1 °F 0.5 °F 82% 29.44 in 10.0 mi Variable 4.6 mph - N/A   Overcast
11:13 PM 5.0 °F -5.6 °F 1.4 °F 85% 29.40 in 10.0 mi Variable 5.8 mph - N/A   Overcast
11:58 PM 5.9 °F -4.5 °F 1.4 °F 82% 29.47 in 5.0 mi Variable 5.8 mph - 0.00 in Snow Light Snow